Flag for Germany Weather past 2 weeks in Demmin, Mecklenburg-Western Pomerania, Germany

Now
54 °F

Partly sunny.


Feels Like: 54 °F
Forecast: 52 / 68 °F
Wind: 2 mph from South

Location: Greifswald

Current Time: Aug 22, 2014 at 8:53:25 AM

Latest Report: Aug 22, 2014 at 8:00 AM


Visibility: 9 mi

Pressure: 29.90 "Hg

Humidity: 81%

Dew point: 48 °F

Location of DemminLocation

Historic Weather in Demmin — Graph

°F

Demmin temperature yesterday

Maximum temperature yesterday: 64 °F (at 4:00 PM)
Minimum temperature yesterday: 49 °F (at 6:00 AM)
Average temperature yesterday: 56 °F

Past Weeks' High & Low Weather Summary

 TemperatureHumidityPressure
High80 °F (Aug 9, 1:00 PM)99% (Aug 9, 3:00 AM)30.00 "Hg (Aug 9, 3:00 AM)
Low49 °F (Aug 21, 6:00 AM)37% (Aug 7, 1:00 PM)29.47 "Hg (Aug 18, 3:00 PM)
Average62 °F75%29.81 "Hg
* Reported Aug 7 8:00 AM — Aug 22 8:00 AM, Demmin, Weather by CustomWeather, © 2014

Note: Actual official high and low records may vary slightly from our data, if they occured in-between our weather recording intervals... More about our weather records

Advertising

Demmin weather history for previous 24 hours

 ConditionsComfort  
Time TempWeatherWind HumidityBarometerVisibility
8:00 AM
Aug 22
54 °FPartly sunny.2 mph81%29.90 "Hg9 mi
7:00 AM51 °FPartly sunny.2 mph83%29.91 "Hg7 mi
6:00 AM50 °FScattered clouds.1 mph87%29.91 "Hg7 mi
4:00 AM51 °FPassing clouds.3 mph83%29.93 "Hg10 mi
3:00 AM51 °FClear.2 mph85%29.94 "Hg12 mi
2:00 AM52 °FPassing clouds.2 mph82%29.95 "Hg15 mi
1:00 AM50 °FPassing clouds.2 mph87%29.95 "Hg17 mi
12:00 AM51 °FPassing clouds.1 mph87%29.96 "Hg17 mi
11:00 PM
Aug 21
51 °FPassing clouds.1 mph86%29.95 "Hg17 mi
10:00 PM53 °FPassing clouds.1 mph84%29.96 "Hg17 mi
9:00 PM54 °FPassing clouds.1 mph79%29.95 "Hg19 mi
8:00 PM60 °FPartly sunny.2 mph58%29.95 "Hg19 mi
7:00 PM64 °FPartly sunny.3 mph51%29.94 "Hg19 mi
6:00 PM62 °FPartly sunny.5 mph55%29.95 "Hg25 mi
4:00 PM64 °FScattered clouds.6 mph46%29.95 "Hg25 mi
3:00 PM63 °FPartly sunny.6 mph48%29.95 "Hg28 mi
2:00 PM61 °FPartly sunny.6 mph54%29.96 "Hg25 mi
1:00 PM62 °FScattered clouds.6 mph52%29.95 "Hg28 mi
12:00 PM62 °FScattered clouds.7 mph54%29.95 "Hg19 mi
10:00 AM58 °FPassing clouds.5 mph69%29.96 "Hg16 mi
9:00 AM54 °FPassing clouds.3 mph79%29.95 "Hg17 mi
8:00 AM52 °FScattered clouds.3 mph84%29.94 "Hg16 mi
Weather by CustomWeather, © 2014

See weather overviewHow to use our weather pages